Hourly Weather Montivilliers

Today, 24 September, Thursday

Time Temperature Precipitation Wind Pressure Humidity
00:00 +11°C° 0 mm 7 mps 750 mmHg 79%
01:00 +10°C° 0 mm 7 mps 750 mmHg 81%
02:00 +10°C° 0 mm 8 mps 750 mmHg 83%
03:00 +10°C° 0 mm 8 mps 750 mmHg 85%
04:00 +10°C° 0 mm 8 mps 749 mmHg 85%
05:00 +9°C° 0 mm 8 mps 749 mmHg 85%
06:00 +9°C° 0 mm 8 mps 748 mmHg 86%
07:00 +10°C° 0.4 mm 9 mps 748 mmHg 85%
08:00 +11°C° 0.4 mm 9 mps 748 mmHg 84%
09:00 +12°C° 0.4 mm 10 mps 748 mmHg 83%
10:00 +13°C° 0.2 mm 9 mps 748 mmHg 74%
11:00 +15°C° 0.2 mm 9 mps 747 mmHg 65%
12:00 +16°C° 0.2 mm 9 mps 747 mmHg 56%
13:00 +15°C° 0.3 mm 9 mps 747 mmHg 59%
14:00 +15°C° 0.3 mm 9 mps 746 mmHg 62%
15:00 +15°C° 0.3 mm 9 mps 745 mmHg 65%
16:00 +12°C° 2.3 mm 9 mps 745 mmHg 71%
17:00 +11°C° 2.3 mm 9 mps 745 mmHg 76%
18:00 +8°C° 2.3 mm 9 mps 745 mmHg 82%
19:00 +8°C° 0.3 mm 9 mps 746 mmHg 81%
20:00 +8°C° 0.3 mm 9 mps 746 mmHg 80%
21:00 +7°C° 0.3 mm 9 mps 746 mmHg 78%
22:00 +7°C° 0.8 mm 10 mps 745 mmHg 80%
23:00 +7°C° 0.8 mm 11 mps 745 mmHg 81%

Tomorrow, 25 September, Friday

Time Temperature Precipitation Wind Pressure Humidity
00:00 +7°C° 0.8 mm 12 mps 744 mmHg 83%
01:00 +8°C° 0.4 mm 12 mps 744 mmHg 82%
02:00 +9°C° 0.4 mm 11 mps 745 mmHg 81%
03:00 +9°C° 0.4 mm 11 mps 745 mmHg 80%
04:00 +9°C° 0.5 mm 10 mps 745 mmHg 80%
05:00 +10°C° 0.5 mm 9 mps 746 mmHg 80%
06:00 +10°C° 0.5 mm 8 mps 747 mmHg 80%
07:00 +10°C° 0.9 mm 8 mps 748 mmHg 79%
08:00 +10°C° 0.9 mm 9 mps 749 mmHg 78%
09:00 +10°C° 0.9 mm 9 mps 750 mmHg 78%
10:00 +9°C° 0.5 mm 10 mps 751 mmHg 76%
11:00 +11°C° 0.5 mm 11 mps 752 mmHg 73%
12:00 +11°C° 0.5 mm 11 mps 753 mmHg 71%
13:00 +11°C° 0.3 mm 11 mps 754 mmHg 69%
14:00 +12°C° 0.3 mm 11 mps 755 mmHg 67%
15:00 +12°C° 0.3 mm 11 mps 756 mmHg 65%
16:00 +11°C° 0.2 mm 10 mps 756 mmHg 67%
17:00 +11°C° 0.2 mm 9 mps 757 mmHg 68%
18:00 +10°C° 0.2 mm 8 mps 757 mmHg 69%
19:00 +10°C° 0 mm 8 mps 758 mmHg 69%
20:00 +10°C° 0 mm 7 mps 759 mmHg 68%
21:00 +10°C° 0 mm 7 mps 759 mmHg 67%
22:00 +10°C° 0.2 mm 6 mps 759 mmHg 70%
23:00 +10°C° 0.2 mm 6 mps 760 mmHg 73%

Day after tomorrow, 26 September, Saturday

Time Temperature Precipitation Wind Pressure Humidity
00:00 +9°C° 0.2 mm 6 mps 760 mmHg 75%
01:00 +9°C° 0.2 mm 6 mps 760 mmHg 76%
02:00 +9°C° 0.2 mm 7 mps 760 mmHg 77%
03:00 +9°C° 0.2 mm 7 mps 760 mmHg 79%
04:00 +9°C° 0 mm 6 mps 760 mmHg 76%
05:00 +9°C° 0 mm 6 mps 760 mmHg 73%
06:00 +8°C° 0 mm 6 mps 760 mmHg 70%
07:00 +9°C° 0 mm 6 mps 760 mmHg 67%
08:00 +10°C° 0 mm 5 mps 760 mmHg 64%
09:00 +12°C° 0 mm 5 mps 760 mmHg 60%
10:00 +10°C° 0.5 mm 5 mps 759 mmHg 66%
11:00 +10°C° 0.5 mm 5 mps 759 mmHg 72%
12:00 +10°C° 0.5 mm 4 mps 758 mmHg 78%
13:00 +10°C° 0.7 mm 4 mps 758 mmHg 83%
14:00 +9°C° 0.7 mm 3 mps 757 mmHg 87%
15:00 +9°C° 0.7 mm 2 mps 756 mmHg 91%
16:00 +9°C° 0.2 mm 2 mps 756 mmHg 90%
17:00 +9°C° 0.2 mm 2 mps 756 mmHg 89%
18:00 +9°C° 0.2 mm 2 mps 756 mmHg 88%
19:00 +9°C° 0.1 mm 2 mps 756 mmHg 86%
20:00 +9°C° 0.1 mm 3 mps 757 mmHg 83%
21:00 +8°C° 0.1 mm 3 mps 757 mmHg 80%
22:00 +8°C° 0 mm 3 mps 757 mmHg 78%
23:00 +7°C° 0 mm 4 mps 757 mmHg 76%

27 September, Sunday

Time Temperature Precipitation Wind Pressure Humidity
00:00 +7°C° 0 mm 4 mps 757 mmHg 73%
01:00 +7°C° 0 mm 4 mps 757 mmHg 75%
02:00 +7°C° 0 mm 4 mps 757 mmHg 76%
03:00 +7°C° 0 mm 4 mps 757 mmHg 78%
04:00 +7°C° 0 mm 4 mps 757 mmHg 77%
05:00 +7°C° 0 mm 5 mps 757 mmHg 77%
06:00 +7°C° 0 mm 5 mps 757 mmHg 76%
07:00 +8°C° 0 mm 6 mps 757 mmHg 75%
08:00 +9°C° 0 mm 6 mps 757 mmHg 74%
09:00 +10°C° 0 mm 7 mps 758 mmHg 74%
10:00 +10°C° 0 mm 7 mps 758 mmHg 72%
11:00 +10°C° 0 mm 6 mps 758 mmHg 70%
12:00 +11°C° 0 mm 6 mps 758 mmHg 68%
13:00 +11°C° 0 mm 6 mps 758 mmHg 67%
14:00 +11°C° 0 mm 6 mps 757 mmHg 67%
15:00 +11°C° 0 mm 6 mps 757 mmHg 66%
16:00 +12°C° 0 mm 5 mps 757 mmHg 66%
17:00 +12°C° 0 mm 5 mps 758 mmHg 65%
18:00 +10°C° 0 mm 5 mps 758 mmHg 65%
19:00 +10°C° 0 mm 5 mps 758 mmHg 66%
20:00 +9°C° 0 mm 5 mps 758 mmHg 67%
21:00 +9°C° 0 mm 5 mps 759 mmHg 67%
22:00 +9°C° 0 mm 5 mps 758 mmHg 69%
23:00 +10°C° 0 mm 4 mps 758 mmHg 71%

28 September, Monday

Time Temperature Precipitation Wind Pressure Humidity
00:00 +10°C° 0 mm 4 mps 758 mmHg 73%
01:00 +8°C° 0 mm 4 mps 758 mmHg 74%
02:00 +8°C° 0 mm 4 mps 758 mmHg 75%
03:00 +8°C° 0 mm 4 mps 757 mmHg 76%
04:00 +10°C° 0 mm 4 mps 757 mmHg 78%
05:00 +10°C° 0 mm 4 mps 757 mmHg 80%
06:00 +10°C° 0 mm 4 mps 757 mmHg 82%
07:00 +11°C° 0 mm 4 mps 757 mmHg 81%
08:00 +12°C° 0 mm 5 mps 757 mmHg 80%
09:00 +13°C° 0 mm 5 mps 757 mmHg 79%
10:00 +14°C° 0.1 mm 5 mps 757 mmHg 81%
11:00 +15°C° 0.1 mm 6 mps 757 mmHg 82%
12:00 +16°C° 0.1 mm 6 mps 757 mmHg 84%
13:00 +16°C° 0.3 mm 6 mps 756 mmHg 84%
14:00 +17°C° 0.3 mm 6 mps 756 mmHg 85%
15:00 +17°C° 0.3 mm 6 mps 756 mmHg 85%
16:00 +17°C° 0.3 mm 6 mps 756 mmHg 87%
17:00 +16°C° 0.3 mm 6 mps 756 mmHg 90%
18:00 +16°C° 0.3 mm 5 mps 756 mmHg 92%
19:00 +16°C° 0.2 mm 6 mps 756 mmHg 92%
20:00 +15°C° 0.2 mm 6 mps 756 mmHg 92%
21:00 +15°C° 0.2 mm 6 mps 757 mmHg 92%
22:00 +15°C° 0.1 mm 6 mps 757 mmHg 90%
23:00 +14°C° 0.1 mm 6 mps 757 mmHg 88%

29 September, Tuesday

Time Temperature Precipitation Wind Pressure Humidity
00:00 +14°C° 0.1 mm 6 mps 757 mmHg 86%
01:00 +13°C° 0 mm 6 mps 757 mmHg 86%
02:00 +13°C° 0 mm 6 mps 758 mmHg 86%
03:00 +12°C° 0 mm 5 mps 758 mmHg 86%
04:00 +12°C° 0 mm 5 mps 758 mmHg 84%
05:00 +11°C° 0 mm 4 mps 758 mmHg 83%
06:00 +11°C° 0 mm 4 mps 759 mmHg 82%
07:00 +12°C° 0 mm 4 mps 759 mmHg 79%
08:00 +13°C° 0 mm 4 mps 759 mmHg 76%
09:00 +15°C° 0 mm 4 mps 759 mmHg 73%
10:00 +15°C° 0.1 mm 4 mps 759 mmHg 69%
11:00 +17°C° 0.1 mm 4 mps 759 mmHg 65%
12:00 +16°C° 0.1 mm 5 mps 759 mmHg 61%
13:00 +16°C° 0 mm 5 mps 759 mmHg 61%
14:00 +17°C° 0 mm 4 mps 759 mmHg 60%
15:00 +17°C° 0 mm 4 mps 759 mmHg 60%
16:00 +14°C° 0 mm 4 mps 759 mmHg 65%
17:00 +13°C° 0 mm 3 mps 759 mmHg 70%
18:00 +12°C° 0 mm 3 mps 759 mmHg 76%
19:00 +12°C° 0 mm 2 mps 760 mmHg 77%
20:00 +12°C° 0 mm 2 mps 760 mmHg 78%
21:00 +10°C° 0 mm 2 mps 760 mmHg 79%
22:00 +10°C° 0 mm 2 mps 760 mmHg 80%
23:00 +10°C° 0 mm 2 mps 759 mmHg 81%
Show more